Tracking 31027 objects as of 19-Jul-2025
HD Live streaming from Space Station
objects crossing your sky now

STARLINK-6205

Track STARLINK-6205 now!
10-day predictions
STARLINK-6205 is classified as:


NORAD ID: 56898
Int'l Code: 2023-083Y
Perigee: 565.3 km
Apogee: 567.1 km
Inclination: 43.0 °
Period: 95.8 minutes
Semi major axis: 6937 km
RCS: Unknown
Launch date: June 12, 2023
Source: United States (US)
Launch site: AIR FORCE EASTERN TEST RANGE (AFETR)
Your satellite tracking list
Your tracking list is empty




NASA's NSSDC Master Catalog

Two Line Element Set (TLE):
1 56898U 23083Y   25199.54568203 -.00000550  00000-0 -25631-4 0  9994
2 56898  43.0036 273.6525 0001309 274.7542  85.3151 15.02533102116562
Source of the keplerian elements: AFSPC